CW6391 Weather Reports


Display with metric or nautical units.
time (UTC)temp
F
wind
direction
speed
MPH
gust
MPH
rain 1hr
in
rain 24hr
in
rain mn
in
humidity
%
barometer
mb
20260831042107 61 127 1.0 5.0 0.27 0.42 0.00 90 1012.9
20260831041607 61 157 1.0 2.0 0.31 0.42 0.00 90 1013.2
20260831041110 61 145 1.0 3.0 0.34 0.42 0.00 90 1013.2
20260831040607 61 75 2.0 3.0 0.34 0.42 0.00 90 1013.2
20260831040107 61 74 2.0 5.0 0.34 0.42 0.00 90 1013.2
20260831035610 61 103 1.0 3.0 0.34 0.42 0.00 90 1013.5
20260831035107 61 122 0.0 5.0 0.38 0.41 0.00 90 1013.5
20260831034613 61 96 1.0 39.0 0.38 0.39 0.00 89 1013.5
20260831034113 61 325 3.0 54.0 0.36 0.36 0.00 89 1013.9
20260831033607 61 233 2.0 6.0 0.35 0.35 0.00 89 1013.9
20260831033113 61 248 2.0 7.0 0.34 0.34 0.00 88 1013.9
20260831032610 61 241 2.0 12.0 0.27 0.27 0.00 87 1014.6
20260831032107 61 248 3.0 10.0 0.15 0.15 0.00 86 1014.6
20260831031607 62 193 3.0 7.0 0.10 0.10 0.00 84 1013.2
20260831031110 61 172 2.0 6.0 0.08 0.08 0.00 84 1012.1
20260831030613 61 105 1.0 4.0 0.08 0.08 0.00 85 1011.8
20260831030110 61 282 1.0 4.0 0.08 0.08 0.00 84 1012.1
20260831025613 62 328 2.0 4.0 0.07 0.07 0.00 83 1012.1
20260831025110 62 320 1.0 3.0 0.03 0.03 0.00 80 1012.1
20260831024607 62 195 1.0 2.0 0.00 0.00 0.00 77 1012.1
20260831024110 62 195 1.0 3.0 0.00 0.00 0.00 77 1012.1
20260831023613 62 162 2.0 3.0 0.00 0.00 0.00 78 1012.1
20260831023113 62 158 1.0 3.0 0.00 0.00 0.00 78 1012.1
20260831022607 62 171 1.0 3.0 0.00 0.00 0.00 78 1012.1
20260831022110 62 172 1.0 2.0 0.00 0.00 0.00 78 1012.5
20260831021613 62 256 0.0 2.0 0.00 0.00 0.00 78 1012.5
20260831021107 62 329 1.0 2.0 0.00 0.00 0.00 78 1012.5
20260831020610 61 171 0.0 1.0 0.00 0.00 0.00 79 1012.9
20260831020108 61 73 0.0 2.0 0.00 0.00 0.00 79 1012.5
20260831015607 61 82 0.0 1.0 0.00 0.00 0.00 79 1012.5
20260831015110 61 303 0.0 1.0 0.00 0.00 0.00 79 1012.9
20260831014607 61 243 1.0 1.0 0.00 0.00 0.00 80 1012.9
20260831014110 61 97 0.0 3.0 0.00 0.00 0.00 80 1012.9
20260831013607 61 193 1.0 3.0 0.00 0.00 0.00 80 1013.2
20260831013110 61 356 1.0 3.0 0.00 0.00 0.00 80 1012.9
20260831012607 60 344 1.0 2.0 0.00 0.00 0.00 81 1012.9
20260831012113 60 81 1.0 3.0 0.00 0.00 0.00 80 1013.2
20260831011607 60 164 1.0 4.0 0.00 0.00 0.00 80 1013.2
20260831011107 60 104 2.0 4.0 0.00 0.00 0.00 80 1013.2
20260831010607 60 93 2.0 3.0 0.00 0.00 0.00 80 1013.2
20260831010110 60 73 1.0 1.0 0.00 0.00 0.00 80 1013.2
20260831005607 60 303 0.0 2.0 0.00 0.00 0.00 81 1013.2
20260831005110 60 75 0.0 2.0 0.00 0.00 0.00 81 1013.5
20260831004610 60 126 0.0 2.0 0.00 0.00 0.00 81 1013.5
20260831004107 60 340 0.0 1.0 0.00 0.00 0.00 82 1013.5
20260831003607 60 87 0.0 2.0 0.00 0.00 0.00 82 1013.5
20260831003107 60 55 0.0 1.0 0.00 0.00 0.00 81 1013.5
20260831002607 60 243 0.0 1.0 0.00 0.00 0.00 81 1013.5
20260831002107 60 108 0.0 3.0 0.00 0.00 0.00 81 1013.5
20260831001607 60 72 0.0 2.0 0.00 0.00 0.00 81 1013.9
20260831001110 60 94 1.0 3.0 0.00 0.00 0.00 81 1013.9
20260831000610 60 107 1.0 2.0 0.00 0.00 0.00 81 1013.9
20260831000113 60 99 1.0 3.0 0.00 0.00 0.00 81 1013.9
20260830235610 61 76 1.0 3.0 0.00 0.00 0.00 81 1013.9
20260830235107 61 54 1.0 4.0 0.00 0.00 0.00 80 1013.9
20260830234607 61 84 1.0 3.0 0.00 0.00 0.00 80 1013.9
20260830234113 61 187 0.0 4.0 0.00 0.00 0.00 79 1013.9
20260830233607 61 100 1.0 4.0 0.00 0.00 0.00 79 1013.9
20260830233107 61 130 0.0 2.0 0.00 0.00 0.00 79 1014.2
20260830232607 61 75 1.0 2.0 0.00 0.00 0.00 79 1014.2
20260830232107 61 74 1.0 3.0 0.00 0.00 0.00 79 1014.2
20260830231610 61 84 2.0 3.0 0.00 0.00 0.00 79 1014.2
20260830231107 62 94 2.0 3.0 0.00 0.00 0.00 79 1014.2
20260830230610 62 100 0.0 4.0 0.00 0.00 0.00 79 1014.2
20260830230113 62 79 2.0 4.0 0.00 0.00 0.00 79 1014.2
20260830225610 62 86 1.0 3.0 0.00 0.00 0.00 78 1014.2
20260830225110 62 76 1.0 3.0 0.00 0.00 0.00 78 1014.6
20260830224613 62 67 1.0 2.0 0.00 0.00 0.00 78 1014.6
20260830224107 62 95 1.0 2.0 0.00 0.00 0.00 78 1014.6
20260830223607 62 99 1.0 2.0 0.00 0.00 0.00 77 1014.6
20260830223107 63 159 0.0 2.0 0.00 0.00 0.00 77 1014.6
20260830222610 63 130 0.0 2.0 0.00 0.00 0.00 76 1014.6
20260830222113 63 237 0.0 1.0 0.00 0.00 0.00 76 1014.6
20260830221607 63 196 0.0 2.0 0.00 0.00 0.00 76 1014.6
20260830221110 63 153 0.0 2.0 0.00 0.00 0.00 75 1014.6
20260830220607 63 72 1.0 2.0 0.00 0.00 0.00 75 1014.2
20260830220107 64 123 1.0 2.0 0.00 0.00 0.00 74 1014.2
20260830215607 64 63 0.0 2.0 0.00 0.00 0.00 74 1014.2
20260830215107 64 139 0.0 2.0 0.00 0.00 0.00 74 1014.2
20260830214610 64 74 1.0 2.0 0.00 0.00 0.00 73 1014.2
20260830214113 64 120 1.0 2.0 0.00 0.00 0.00 73 1014.2
20260830213610 64 94 0.0 2.0 0.00 0.00 0.00 73 1014.2
20260830213110 64 61 0.0 2.0 0.00 0.00 0.00 72 1014.2
20260830212610 65 72 1.0 3.0 0.00 0.00 0.00 72 1014.2
20260830212110 65 81 1.0 3.0 0.00 0.00 0.00 71 1014.6
20260830211607 65 96 1.0 3.0 0.00 0.00 0.00 71 1014.6
20260830211107 65 147 0.0 2.0 0.00 0.00 0.00 70 1014.6
20260830210607 65 137 0.0 2.0 0.00 0.00 0.00 70 1014.6
20260830210107 65 207 0.0 2.0 0.00 0.00 0.00 69 1014.6
20260830205610 66 194 0.0 1.0 0.00 0.00 0.00 69 1014.6
20260830205107 66 70 0.0 2.0 0.00 0.00 0.00 69 1014.2
20260830204610 66 99 0.0 3.0 0.00 0.00 0.00 68 1014.2
20260830204107 66 87 1.0 2.0 0.00 0.00 0.00 67 1014.2
20260830203610 67 115 1.0 1.0 0.00 0.00 0.00 66 1014.2
20260830203107 67 110 1.0 1.0 0.00 0.00 0.00 66 1014.2
20260830202610 67 32 0.0 2.0 0.00 0.00 0.00 65 1014.2
20260830202107 67 139 1.0 2.0 0.00 0.00 0.00 65 1014.2
20260830201607 67 134 1.0 3.0 0.00 0.00 0.00 64 1014.2
20260830201107 68 168 1.0 3.0 0.00 0.00 0.00 64 1014.6
20260830200613 68 158 1.0 3.0 0.00 0.00 0.00 63 1014.6
20260830200110 68 162 0.0 2.0 0.00 0.00 0.00 62 1014.6
20260830195610 68 160 1.0 2.0 0.00 0.00 0.00 62 1014.6
20260830195116 68 208 0.0 1.0 0.00 0.00 0.00 62 1014.6
20260830194613 69 174 0.0 1.0 0.00 0.00 0.00 61 1014.6
20260830194113 69 227 0.0 1.0 0.00 0.00 0.00 60 1014.6
20260830193607 69 216 0.0 2.0 0.00 0.00 0.00 60 1014.6
20260830193107 69 220 0.0 3.0 0.00 0.00 0.00 59 1014.6
20260830192607 69 198 1.0 2.0 0.00 0.00 0.00 59 1014.6
20260830192113 70 199 0.0 1.0 0.00 0.00 0.00 58 1014.6
20260830191616 70 195 0.0 1.0 0.00 0.00 0.00 57 1014.6
20260830191107 71 196 0.0 2.0 0.00 0.00 0.00 56 1014.6
20260830190607 71 253 1.0 2.0 0.00 0.00 0.00 56 1014.6
20260830190110 71 202 0.0 1.0 0.00 0.00 0.00 55 1014.6
20260830185610 72 307 0.0 1.0 0.00 0.00 0.00 54 1014.6
20260830185107 72 214 0.0 3.0 0.00 0.00 0.00 53 1014.2
20260830184608 72 189 1.0 3.0 0.00 0.00 0.00 52 1014.2
20260830184107 72 204 1.0 2.0 0.00 0.00 0.00 52 1014.2
20260830183607 73 225 0.0 1.0 0.00 0.00 0.00 52 1014.2
20260830183107 73 279 0.0 2.0 0.00 0.00 0.00 51 1014.2
20260830182607 73 292 0.0 1.0 0.00 0.00 0.00 51 1014.2
20260830182110 73 209 0.0 2.0 0.00 0.00 0.00 50 1014.2
20260830181607 73 268 0.0 1.0 0.00 0.00 0.00 49 1013.9
20260830181110 74 198 0.0 1.0 0.00 0.00 0.00 49 1013.9
20260830180613 74 223 0.0 1.0 0.00 0.00 0.00 49 1013.9
20260830180107 74 301 0.0 3.0 0.00 0.00 0.00 48 1013.9
20260830175616 74 251 0.0 3.0 0.00 0.00 0.00 47 1013.9
20260830175107 75 227 1.0 5.0 0.00 0.00 0.00 47 1013.9
20260830174610 75 260 2.0 5.0 0.00 0.00 0.00 46 1013.9
20260830174107 75 301 1.0 4.0 0.00 0.00 0.00 46 1013.9
20260830173607 75 273 1.0 4.0 0.00 0.00 0.00 45 1013.9
20260830173110 76 229 2.0 4.0 0.00 0.00 0.00 44 1013.9
20260830172607 76 231 1.0 5.0 0.00 0.00 0.00 44 1013.9
20260830172110 76 271 1.0 3.0 0.00 0.00 0.00 43 1013.9
20260830171607 76 225 1.0 4.0 0.00 0.00 0.00 42 1013.9
20260830171110 77 270 2.0 7.0 0.00 0.00 0.00 41 1013.9
20260830170608 77 249 2.0 7.0 0.00 0.00 0.00 41 1013.9
20260830170107 77 247 1.0 8.0 0.00 0.00 0.00 40 1013.5
20260830165608 78 258 3.0 6.0 0.00 0.00 0.00 39 1013.5
20260830165107 78 196 0.0 4.0 0.00 0.00 0.00 40 1013.5
20260830164607 78 245 0.0 3.0 0.00 0.00 0.00 39 1013.5
20260830164107 78 228 1.0 6.0 0.00 0.00 0.00 38 1013.5
20260830163613 78 213 1.0 5.0 0.00 0.00 0.00 37 1013.5
20260830163107 78 237 1.0 4.0 0.00 0.00 0.00 38 1013.9
20260830162607 78 217 0.0 4.0 0.00 0.00 0.00 38 1013.9
20260830162113 77 291 1.0 7.0 0.00 0.00 0.00 38 1013.5
20260830161607 78 236 4.0 9.0 0.00 0.00 0.00 37 1013.5
20260830161113 78 253 2.0 7.0 0.00 0.00 0.00 37 1013.5
20260830160607 78 227 0.0 6.0 0.00 0.00 0.00 38 1013.5
20260830160107 78 252 3.0 8.0 0.00 0.00 0.00 36 1013.9
20260830155613 78 222 2.0 9.0 0.00 0.00 0.00 36 1013.9
20260830155110 79 241 5.0 9.0 0.00 0.00 0.00 34 1013.9
20260830154610 80 257 2.0 8.0 0.00 0.00 0.00 35 1013.9
20260830154107 79 227 2.0 9.0 0.00 0.00 0.00 35 1013.9
20260830153613 79 259 3.0 10.0 0.00 0.00 0.00 35 1013.9
20260830153116 80 279 3.0 10.0 0.00 0.00 0.00 34 1013.9
20260830152607 80 255 3.0 9.0 0.00 0.00 0.00 35 1013.9
20260830152113 80 197 4.0 9.0 0.00 0.00 0.00 35 1013.9
20260830151607 79 225 4.0 10.0 0.00 0.00 0.00 35 1013.9
20260830151107 79 231 3.0 12.0 0.00 0.00 0.00 35 1013.9
20260830150607 80 248 3.0 10.0 0.00 0.00 0.00 35 1013.9
20260830150107 80 235 2.0 11.0 0.00 0.00 0.00 35 1013.9
20260830145607 80 264 5.0 8.0 0.00 0.00 0.00 35 1013.9
20260830145107 80 249 2.0 10.0 0.00 0.00 0.00 35 1013.9
20260830144607 80 235 5.0 11.0 0.00 0.00 0.00 34 1013.9
20260830144110 81 259 4.0 10.0 0.00 0.00 0.00 33 1013.9
20260830143610 81 215 2.0 10.0 0.00 0.00 0.00 33 1013.9
20260830143107 81 262 4.0 10.0 0.00 0.00 0.00 33 1013.9
20260830142607 81 251 3.0 9.0 0.00 0.00 0.00 32 1013.9
20260830142113 81 251 3.0 14.0 0.00 0.00 0.00 33 1013.9
20260830141607 81 210 3.0 11.0 0.00 0.00 0.00 33 1013.9
20260830141110 81 256 5.0 12.0 0.00 0.00 0.00 33 1013.9
20260830140610 81 208 1.0 12.0 0.00 0.00 0.00 33 1013.9
20260830140110 81 227 2.0 9.0 0.00 0.00 0.00 34 1013.9
20260830135607 80 229 3.0 12.0 0.00 0.00 0.00 34 1013.9
20260830135113 81 265 4.0 14.0 0.00 0.00 0.00 32 1013.9
20260830134613 83 260 4.0 13.0 0.00 0.00 0.00 33 1013.9
20260830134107 81 230 1.0 10.0 0.00 0.00 0.00 34 1013.9
20260830133616 82 231 3.0 13.0 0.00 0.00 0.00 34 1014.2
20260830133107 82 246 2.0 6.0 0.00 0.00 0.00 34 1014.2
20260830132610 82 196 2.0 7.0 0.00 0.00 0.00 35 1014.2
20260830132107 82 205 2.0 10.0 0.00 0.00 0.00 34 1014.2
20260830131610 81 216 2.0 11.0 0.00 0.00 0.00 35 1014.2
20260830131111 80 248 3.0 11.0 0.00 0.00 0.00 35 1014.2
20260830130607 80 251 2.0 9.0 0.00 0.00 0.00 36 1014.2
20260830130113 79 253 3.0 10.0 0.00 0.00 0.00 36 1014.2
20260830125613 81 266 3.0 8.0 0.00 0.00 0.00 34 1014.2
20260830125107 80 196 1.0 10.0 0.00 0.00 0.00 36 1014.2
20260830124610 79 231 5.0 13.0 0.00 0.00 0.00 36 1014.2
20260830124107 80 267 2.0 12.0 0.00 0.00 0.00 36 1014.2
20260830123610 80 242 5.0 13.0 0.00 0.00 0.00 35 1014.2
20260830123110 81 266 6.0 12.0 0.00 0.00 0.00 34 1014.2
20260830122607 80 241 4.0 12.0 0.00 0.00 0.00 35 1014.2
20260830122107 80 266 5.0 16.0 0.00 0.00 0.00 35 1014.2
20260830121610 81 212 3.0 10.0 0.00 0.00 0.00 35 1014.2
20260830121116 80 216 2.0 13.0 0.00 0.00 0.00 38 1014.2
20260830120616 80 232 5.0 13.0 0.00 0.00 0.00 36 1014.6
20260830120107 81 208 3.0 10.0 0.00 0.00 0.00 36 1014.2
20260830115610 80 269 3.0 12.0 0.00 0.00 0.00 38 1014.2
20260830115113 79 233 5.0 12.0 0.00 0.00 0.00 38 1014.2
20260830114607 78 176 2.0 13.0 0.00 0.00 0.00 39 1014.2
20260830114110 79 229 2.0 11.0 0.00 0.00 0.00 37 1014.2
20260830113610 79 243 4.0 10.0 0.00 0.00 0.00 38 1014.6
20260830113113 79 240 2.0 8.0 0.00 0.00 0.00 38 1014.6
20260830112607 78 225 2.0 11.0 0.00 0.00 0.00 38 1014.6
20260830112110 78 263 4.0 13.0 0.00 0.00 0.00 38 1014.6
20260830111610 79 281 2.0 10.0 0.00 0.00 0.00 38 1014.6
20260830111110 78 245 2.0 8.0 0.00 0.00 0.00 40 1014.6
20260830110607 77 240 3.0 11.0 0.00 0.00 0.00 41 1014.6
20260830110107 77 235 4.0 12.0 0.00 0.00 0.00 40 1014.6
20260830105610 78 249 5.0 12.0 0.00 0.00 0.00 38 1014.6
20260830105107 78 208 3.0 13.0 0.00 0.00 0.00 40 1014.6
20260830104610 78 283 4.0 10.0 0.00 0.00 0.00 42 1014.6
20260830104110 77 235 1.0 16.0 0.00 0.00 0.00 42 1014.6
20260830103613 76 248 4.0 13.0 0.00 0.00 0.00 42 1014.6
20260830103110 76 256 4.0 10.0 0.00 0.00 0.00 44 1014.6
20260830102613 75 252 2.0 12.0 0.00 0.00 0.00 47 1014.6
20260830102110 74 259 7.0 12.0 0.00 0.00 0.00 46 1015.0
20260830101607 75 236 4.0 14.0 0.00 0.00 0.00 46 1015.0
20260830101107 76 244 2.0 11.0 0.00 0.00 0.00 45 1015.0
20260830100613 76 253 4.0 11.0 0.00 0.00 0.00 46 1015.0
20260830100110 76 229 2.0 10.0 0.00 0.00 0.00 45 1014.6
20260830095607 76 185 4.0 7.0 0.00 0.00 0.00 45 1014.6
20260830095113 75 212 2.0 9.0 0.00 0.00 0.00 46 1015.0
20260830094613 75 261 3.0 10.0 0.00 0.00 0.00 47 1015.0
20260830094107 74 187 4.0 9.0 0.00 0.00 0.00 48 1015.0
20260830093610 74 221 2.0 11.0 0.00 0.00 0.00 50 1015.0
20260830093110 74 243 5.0 11.0 0.00 0.00 0.00 48 1015.0
20260830092607 74 242 4.0 15.0 0.00 0.00 0.00 49 1015.0
20260830092107 73 265 6.0 13.0 0.00 0.00 0.00 49 1015.0
20260830091607 73 214 1.0 16.0 0.00 0.00 0.00 50 1015.0
20260830091107 74 215 4.0 11.0 0.00 0.00 0.00 49 1015.0
20260830090616 73 228 3.0 10.0 0.00 0.00 0.00 50 1015.0
20260830090113 73 236 4.0 11.0 0.00 0.00 0.00 50 1015.0
20260830085607 74 219 2.0 14.0 0.00 0.00 0.00 50 1015.0
20260830085110 74 253 1.0 10.0 0.00 0.00 0.00 52 1015.0
20260830084610 73 243 5.0 12.0 0.00 0.00 0.00 52 1015.0
20260830084107 72 240 2.0 7.0 0.00 0.00 0.00 53 1015.0
20260830083607 71 227 3.0 11.0 0.00 0.00 0.00 54 1015.0
20260830083107 71 240 4.0 11.0 0.00 0.00 0.00 53 1015.0
20260830082610 72 244 1.0 8.0 0.00 0.00 0.00 54 1015.0
20260830082107 72 241 3.0 9.0 0.00 0.00 0.00 53 1015.0
20260830081613 72 240 2.0 11.0 0.00 0.00 0.00 53 1015.0
20260830081107 72 259 5.0 11.0 0.00 0.00 0.00 52 1015.0
20260830080607 73 208 3.0 9.0 0.00 0.00 0.00 52 1015.0
20260830080107 72 267 1.0 7.0 0.00 0.00 0.00 55 1015.0
20260830075613 71 235 2.0 10.0 0.00 0.00 0.00 55 1015.0
20260830075107 71 248 5.0 13.0 0.00 0.00 0.00 56 1015.0
20260830074611 71 237 4.0 11.0 0.00 0.00 0.00 56 1015.0
20260830074107 71 240 5.0 12.0 0.00 0.00 0.00 56 1015.0
20260830073607 70 247 3.0 8.0 0.00 0.00 0.00 59 1015.0
20260830073107 70 237 4.0 11.0 0.00 0.00 0.00 59 1014.6
20260830072608 69 237 2.0 13.0 0.00 0.00 0.00 60 1014.6
20260830072107 69 233 3.0 9.0 0.00 0.00 0.00 59 1014.6
20260830071610 70 203 2.0 5.0 0.00 0.00 0.00 60 1014.6
20260830071113 70 264 2.0 6.0 0.00 0.00 0.00 59 1014.6
20260830070608 69 244 1.0 5.0 0.00 0.00 0.00 60 1014.6
20260830070107 69 210 3.0 7.0 0.00 0.00 0.00 60 1014.6
20260830065607 69 221 1.0 5.0 0.00 0.00 0.00 60 1014.6
20260830065116 69 236 1.0 8.0 0.00 0.00 0.00 60 1014.6
20260830064613 69 236 1.0 6.0 0.00 0.00 0.00 60 1014.6
20260830064110 69 230 1.0 5.0 0.00 0.00 0.00 60 1014.6
20260830063613 69 199 2.0 5.0 0.00 0.00 0.00 61 1014.6
20260830063107 68 215 1.0 7.0 0.00 0.00 0.00 63 1014.6
20260830062607 67 193 2.0 7.0 0.00 0.00 0.00 64 1014.6
20260830062107 67 246 1.0 4.0 0.00 0.00 0.00 64 1014.6
20260830061610 67 217 1.0 7.0 0.00 0.00 0.00 64 1014.6
20260830061107 67 167 1.0 5.0 0.00 0.00 0.00 64 1014.2
20260830060607 67 179 2.0 5.0 0.00 0.00 0.00 64 1014.2
20260830060107 67 212 1.0 5.0 0.00 0.00 0.00 64 1014.2
20260830055613 67 215 2.0 5.0 0.00 0.00 0.00 64 1014.2
20260830055113 67 176 2.0 10.0 0.00 0.00 0.00 64 1014.2
20260830054607 67 204 1.0 7.0 0.00 0.00 0.00 65 1014.2
20260830054107 67 207 1.0 8.0 0.00 0.00 0.00 65 1014.2
20260830053613 67 217 2.0 11.0 0.00 0.00 0.00 64 1014.2
20260830053107 67 242 3.0 6.0 0.00 0.00 0.00 63 1014.2
20260830052607 67 194 2.0 7.0 0.00 0.00 0.00 63 1014.2
20260830052110 67 202 2.0 7.0 0.00 0.00 0.00 63 1014.2
20260830051613 67 186 2.0 9.0 0.00 0.00 0.00 64 1014.2
20260830051113 66 226 2.0 5.0 0.00 0.00 0.00 63 1014.2
20260830050610 66 219 1.0 5.0 0.00 0.00 0.00 63 1014.2
20260830050110 66 210 2.0 6.0 0.00 0.00 0.00 63 1014.2
20260830045613 66 162 1.0 3.0 0.00 0.00 0.00 63 1014.2
20260830045110 67 181 1.0 5.0 0.00 0.00 0.00 63 1014.2
20260830044607 67 220 1.0 4.0 0.00 0.00 0.00 62 1014.2
20260830044107 67 194 1.0 8.0 0.00 0.00 0.00 62 1014.2
20260830043613 67 203 2.0 6.0 0.00 0.00 0.00 62 1014.2
20260830043113 67 202 1.0 4.0 0.00 0.00 0.00 62 1014.2
20260830042607 67 201 0.0 7.0 0.00 0.00 0.00 62 1014.2